Weather in Nikolskoye

Russia / Amur Oblast     50°55′26″N   128°17′25″E
temp.,
°C
wind,
m/s
gust,
m/s
humid.,
%
clouds,
%
prec.,
mm/h
press.,
hPa
HPBL,
m
19 april, mon
mon1900:00+6s366929 0.0 1004103
03:00+5s357121 0.0 100473
06:00+4wsw34675 0.0 100459
09:00+5nw10124818 0.0 1007896
12:00+6nw91237100 0.0 10081372
15:00+7nw1214230 0.0 10082027
18:00+4nw1115230 0.0 10112225
21:000nw1117290 0.0 10131642
20 april, tue
tue2000:00−1nw917340 0.0 10131466
03:00−2nw1118340 0.0 10131323
06:00−3nw1018350 0.0 10131298
09:00+1nw1116250 0.0 10141393
12:00+6nw913150 0.0 10141669
15:00+10nw810100 0.0 10131658
18:00+10nw48134 0.0 10131647
21:00+6se33205 0.0 101419
21 april, wed
wed2100:00+4se34315 0.0 101455
03:00+3se47405 0.0 101499
06:00+1se48480 0.0 1014142
09:00+10sse57340 0.0 1014424
12:00+17s79255 0.0 1011902
15:00+22s811201 0.0 10091549
18:00+22ssw8132318 0.0 1008980
21:00+17s7162967 0.0 1010367
22 april, thu
thu2200:00+14s515355 0.0 1010291
03:00+13sse61536100 0.0 1010326
06:00+12sse615418 0.0 1009338
09:00+17ssw8123994 0.9 1010648
12:00+21ssw8103382 0.3 10111467
15:00+24wsw61225100 0.4 10102833
18:00+16nnw7937100 0.0 1015581
21:00+11nnw91146100 0.0 1020709
23 april, fri
fri2300:00+5nnw81250100 0.0 1026699
03:00+3nnw8133999 0.0 1028834
06:00+2nnw8123695 0.0 1030797
09:00+4n7830100 0.0 10311071
12:00+7nnw81021100 0.0 10321672
15:00+9n91014100 0.0 10301952
18:00+8n710176 0.0 10312047
21:00+4n61227100 0.0 1032542